FW3936 Weather Reports


Display with metric or nautical units.
time (UTC)temp
F
wind
direction
speed
MPH
gust
MPH
rain 1hr
in
rain 24hr
in
rain mn
in
humidity
%
barometer
mb
20260503230025 75 140 2.0 10.0 0.00 0.00 0.00 35 1018.0
20260503224519 75 138 2.0 7.0 0.00 0.00 0.00 35 1017.8
20260503223017 76 119 2.0 8.0 0.00 0.00 0.00 36 1017.9
20260503221514 76 132 2.0 11.0 0.00 0.00 0.00 38 1018.3
20260503220013 76 127 0.0 6.0 0.00 0.00 0.00 35 1018.5
20260503214532 77 114 1.0 5.0 0.00 0.00 0.00 35 1018.8
20260503213009 78 123 1.0 13.0 0.00 0.00 0.00 32 1019.1
20260503211507 78 143 3.0 9.0 0.00 0.00 0.00 38 1019.0
20260503210005 78 134 0.0 7.0 0.00 0.00 0.00 35 1019.5
20260503204502 77 119 4.0 9.0 0.00 0.00 0.00 36 1019.9
20260503203059 78 145 1.0 7.0 0.00 0.00 0.00 32 1020.2
20260503201556 78 132 2.0 9.0 0.00 0.00 0.00 38 1020.4
20260503200101 78 138 1.0 8.0 0.00 0.00 0.00 31 1020.7
20260503194601 78 147 1.0 5.0 0.00 0.00 0.00 33 1021.0
20260503193058 78 128 5.0 12.0 0.00 0.00 0.00 34 1021.0
20260503191549 78 106 4.0 12.0 0.00 0.00 0.00 41 1021.2
20260503190048 77 134 2.0 8.0 0.00 0.00 0.00 40 1021.3
20260503184551 77 155 2.0 10.0 0.00 0.00 0.00 35 1021.6
20260503183042 76 136 1.0 8.0 0.00 0.00 0.00 38 1022.0
20260503181547 75 144 3.0 8.0 0.00 0.00 0.00 37 1022.3
20260503180047 76 144 2.0 8.0 0.00 0.00 0.00 38 1022.5
20260503174543 75 138 2.0 10.0 0.00 0.00 0.00 37 1022.9
20260503173038 75 123 1.0 10.0 0.00 0.00 0.00 39 1023.1
20260503171524 75 132 5.0 9.0 0.00 0.00 0.00 40 1023.3
20260503150106 67 117 0.0 5.0 0.00 0.00 0.00 57 1023.9
20260503081553 52 82 0.0 0.0 0.00 0.00 0.00 74 1021.9
20260503071546 54 82 0.0 0.0 0.00 0.00 0.00 73 1022.4
20260503054535 55 82 0.0 0.0 0.00 0.00 0.00 70 1022.6
20260503053033 55 82 0.0 0.0 0.00 0.00 0.00 70 1022.5
20260503051537 55 82 0.0 0.0 0.00 0.00 0.00 70 1022.5
20260503050029 55 82 0.0 0.0 0.00 0.00 0.00 70 1022.5
20260503044531 55 82 0.0 0.0 0.00 0.00 0.00 72 1022.4
20260503043028 56 82 0.0 0.0 0.00 0.00 0.00 70 1022.4
20260503041527 56 82 0.0 0.0 0.00 0.00 0.00 70 1022.6
20260503040026 56 82 0.0 0.0 0.00 0.00 0.00 68 1022.4
20260503034527 56 82 0.0 0.0 0.00 0.00 0.00 69 1022.1
20260503033035 57 82 0.0 0.0 0.00 0.00 0.00 69 1022.2
20260503031525 57 82 0.0 0.0 0.00 0.00 0.00 68 1022.0
20260503030043 57 82 0.0 0.0 0.00 0.00 0.00 66 1021.9
20260503024531 58 82 0.0 0.0 0.00 0.00 0.00 67 1021.6
20260503023024 59 82 0.0 0.0 0.00 0.00 0.00 65 1021.6
20260503021526 60 82 0.0 0.0 0.00 0.00 0.00 65 1021.3
20260503020022 60 82 0.0 2.0 0.00 0.00 0.00 63 1021.0
20260503014521 62 82 0.0 1.0 0.00 0.00 0.00 60 1020.7
20260503013021 63 82 0.0 2.0 0.00 0.00 0.00 58 1020.6
20260503011520 65 82 0.0 4.0 0.00 0.00 0.00 53 1020.4
20260503010021 66 82 0.0 3.0 0.00 0.00 0.00 50 1020.3
20260503004520 67 82 0.0 2.0 0.00 0.00 0.00 51 1020.3
20260503003020 68 82 1.0 7.0 0.00 0.00 0.00 45 1020.1
20260503001518 68 81 1.0 7.0 0.00 0.00 0.00 43 1020.3
20260503000029 69 90 1.0 5.0 0.00 0.00 0.00 45 1020.2
20260502234517 70 88 0.0 6.0 0.00 0.00 0.00 42 1020.1
20260502233016 70 92 4.0 9.0 0.00 0.00 0.00 41 1020.2
20260502231516 71 88 0.0 7.0 0.00 0.00 0.00 43 1020.2